TimeCDT,TemperatureF,Dew PointF,Humidity,Sea Level PressureIn,VisibilityMPH,Wind Direction,Wind SpeedMPH,Gust SpeedMPH,PrecipitationIn,Events,Conditions,WindDirDegrees,DateUTC
12:54 AM,66.0,59.0,78,30.06,10.0,Calm,Calm,-,N/A,,Clear,0,2013-07-13 05:54:00
1:54 AM,66.0,59.0,78,30.05,10.0,NE,3.5,-,N/A,,Clear,50,2013-07-13 06:54:00
2:54 AM,64.9,59.0,81,30.04,10.0,Calm,Calm,-,N/A,,Clear,0,2013-07-13 07:54:00
3:54 AM,63.0,57.9,84,30.04,10.0,Calm,Calm,-,N/A,,Clear,0,2013-07-13 08:54:00
4:54 AM,64.9,57.9,78,30.05,10.0,NE,5.8,-,N/A,,Clear,50,2013-07-13 09:54:00
5:54 AM,64.0,57.9,80,30.05,10.0,NE,5.8,-,N/A,,Clear,40,2013-07-13 10:54:00
6:54 AM,64.0,59.0,84,30.07,10.0,NNE,4.6,-,N/A,,Clear,30,2013-07-13 11:54:00
7:54 AM,69.1,62.1,78,30.06,10.0,NE,4.6,-,N/A,,Clear,50,2013-07-13 12:54:00
8:15 AM,71.6,62.6,73,30.08,10.0,ENE,5.8,-,N/A,,Partly Cloudy,70,2013-07-13 13:15:00
8:54 AM,73.0,63.0,71,30.07,10.0,East,8.1,-,N/A,,Clear,80,2013-07-13 13:54:00
9:54 AM,75.9,63.0,64,30.07,10.0,NE,9.2,-,N/A,,Clear,40,2013-07-13 14:54:00
10:54 AM,79.0,63.0,58,30.08,10.0,NE,8.1,-,N/A,,Clear,40,2013-07-13 15:54:00
11:54 AM,82.0,63.0,52,30.07,10.0,NNE,8.1,-,N/A,,Clear,30,2013-07-13 16:54:00
12:54 PM,84.0,63.0,49,30.06,10.0,NE,12.7,17.3,N/A,,Clear,50,2013-07-13 17:54:00
1:54 PM,84.0,62.1,47,30.04,10.0,NE,5.8,18.4,N/A,,Partly Cloudy,50,2013-07-13 18:54:00
2:54 PM,86.0,63.0,46,30.03,10.0,ENE,9.2,-,N/A,,Partly Cloudy,60,2013-07-13 19:54:00
3:54 PM,84.9,63.0,48,30.01,10.0,NE,9.2,-,N/A,,Partly Cloudy,50,2013-07-13 20:54:00
4:49 PM,82.4,64.4,54,30.02,10.0,NE,8.1,-,0.00,Rain-Thunderstorm,Light Thunderstorms and Rain,40,2013-07-13 21:49:00
4:54 PM,81.0,64.9,58,30.01,10.0,NNE,10.4,16.1,0.00,Rain-Thunderstorm,Light Thunderstorms and Rain,30,2013-07-13 21:54:00
5:05 PM,78.8,66.2,65,30.03,10.0,NNE,4.6,-,0.00,Rain,Light Rain,30,2013-07-13 22:05:00
5:54 PM,82.0,64.9,56,30.01,10.0,NE,9.2,-,0.00,,Clear,50,2013-07-13 22:54:00
6:20 PM,77.0,66.2,69,30.04,6.0,East,6.9,-,0.04,Rain-Thunderstorm,Thunderstorms and Rain,80,2013-07-13 23:20:00
6:35 PM,75.2,62.6,65,30.04,10.0,ENE,8.1,-,0.04,,Scattered Clouds,60,2013-07-13 23:35:00
6:44 PM,75.2,60.8,61,30.04,10.0,ENE,9.2,-,0.04,Thunderstorm,Scattered Clouds,60,2013-07-13 23:44:00
6:54 PM,75.0,61.0,62,30.04,10.0,ENE,6.9,-,0.04,Thunderstorm,Partly Cloudy,60,2013-07-13 23:54:00
7:03 PM,75.2,60.8,61,30.04,10.0,NE,6.9,-,N/A,,Clear,50,2013-07-14 00:03:00
7:54 PM,75.0,62.1,64,30.04,10.0,ENE,8.1,-,N/A,,Scattered Clouds,60,2013-07-14 00:54:00
8:54 PM,70.0,63.0,78,30.05,10.0,NNE,3.5,-,N/A,,Clear,30,2013-07-14 01:54:00
9:54 PM,72.0,63.0,73,30.07,10.0,East,5.8,-,N/A,,Clear,90,2013-07-14 02:54:00
10:54 PM,66.9,63.0,87,30.08,10.0,NE,3.5,-,N/A,,Clear,50,2013-07-14 03:54:00
11:54 PM,68.0,63.0,84,30.07,10.0,ENE,4.6,-,N/A,,Clear,70,2013-07-14 04:54:00